Terminal Aerodrome Forecast
Issued by NWS Wilmington, OH

Home | Current Version | Previous Version | Text Only | Print | Product List | Glossary On
Versions: 1 2 3 4 5 6 7 8 9 10 11 12 13 14 15 16 17 18 19 20 21 22 23 24 25 26 27 28 29 30 31 32 33 34 35
000
FTUS41 KILN 231400 AAA
TAFCVG
TAF AMD
KCVG 231455Z 2315/2418 08006KT P6SM SKC=

USA.gov is the U.S. government's official web portal to all federal, state and local government web resources and services.